sat.trackr.live / text

‹ back to catalog

STARLINK-31180

NORAD 58732 · 2024-005E

PAYLOAD ACTIVE UNKNOWN

§ Identity

Operator
Country
US
Launch date
2024-01-07
Launch site
AFETR
Launch vehicle
Mass (kg)
RCS (m²)

Purposes: comms

External: N2YO · Heavens-Above · Gunter

§ Orbital elements

Epoch: 2026-09-20T12:56:01.519872Z

Period
94.27 min
Inclination
43.0015°
Eccentricity
0.0000484
Mean motion
15.27583874 rev/d
Perigee alt
482.7 km
Apogee alt
483.4 km
Semi-major
6,861.2 km
B*
8.9299e-5
RAAN
199.3308°
Arg perigee
272.9543°
Mean anomaly
87.1253°
Rev number
15,023

§ Raw data

STARLINK-311801 58732U 24005E   26263.53890648  .00002197  00000+0  89299-4 0  99972 58732  43.0015 199.3308 0000484 272.9543  87.1253 15.27583874150238

JSON: /api/v1/satellites/58732 · /tle

For live sub-satellite position, see the globe view (requires WebGL).

§ Visibility from observer

Set your observer location to see the next 7 days of passes ≥ 10°. The values pass through the URL so the page stays shareable.

No JS? Fill the form by hand. The geolocation button needs JavaScript.